Location: Asheville, NC
(35.6000°N, 82.5500°W)
Time: 17:51:20
(UTC-04:00)

HO-68 - Pass Details

Date: 04 January 2018
Orbit: 1192 x 1205 km, 100.1° (Epoch: 16 July)

Event Time Altitude Azimuth Distance (km) Brightness Sun altitude
Rises 20:26:10 0° 213° (SSW) 4,092 ? -34.9°
Reaches altitude 10° 20:30:12 10° 235° (SW) 3,131 ? -35.8°
Maximum altitude 20:34:02 15° 268° (W) 2,760 ? -36.5°
Drops below altitude 10° 20:37:53 10° 302° (WNW) 3,135 ? -37.3°
Sets 20:41:59 0° 324° (NW) 4,102 ? -38.1°
